When you browse on this site, cookies collect data to enhance your experience and personalize the content and advertising you see.
Visit our Privacy Policy to learn more. By continuing to use the site, you agree to this use of cookies and data.
  • In Hungary
  • List of Countries
  • For 7 days
  • Water Temperature
  • Satellite Maps
  • Weather Map
  • News
  • Weather Widgets
  • user-avatar
    Login

    Hourly Weather Pily

    Today, 17 January, Thursday

    Time Temperature Precipitation Wind Pressure Humidity
    00:00 -1°C° 0 mm 5 mps 734 mmHg 89%
    01:00 -1°C° 0 mm 4 mps 733 mmHg 89%
    02:00 -1°C° 0 mm 5 mps 732 mmHg 86%
    03:00 -1°C° 0 mm 5 mps 732 mmHg 84%
    04:00 0°C° 0 mm 5 mps 731 mmHg 81%
    05:00 -1°C° 0 mm 6 mps 731 mmHg 78%
    06:00 -1°C° 0 mm 6 mps 731 mmHg 76%
    07:00 -1°C° 0 mm 7 mps 731 mmHg 73%
    08:00 -1°C° 0 mm 7 mps 731 mmHg 73%
    09:00 0°C° 0 mm 7 mps 731 mmHg 74%
    10:00 0°C° 0 mm 7 mps 731 mmHg 74%
    11:00 0°C° 0 mm 7 mps 731 mmHg 76%
    12:00 +1°C° 0 mm 6 mps 731 mmHg 78%
    13:00 +2°C° 0 mm 6 mps 731 mmHg 79%
    14:00 +1°C° 0 mm 6 mps 732 mmHg 81%
    15:00 +1°C° 0 mm 5 mps 732 mmHg 83%
    16:00 +1°C° 0 mm 5 mps 732 mmHg 84%
    17:00 +1°C° 0 mm 5 mps 732 mmHg 84%
    18:00 -1°C° 0 mm 6 mps 732 mmHg 84%
    19:00 -1°C° 0 mm 6 mps 732 mmHg 83%
    20:00 +1°C° 0 mm 6 mps 732 mmHg 83%
    21:00 +1°C° 0 mm 6 mps 732 mmHg 84%
    22:00 +1°C° 0 mm 6 mps 732 mmHg 84%
    23:00 +1°C° 0 mm 6 mps 732 mmHg 84%

    Tomorrow, 18 January, Friday

    Time Temperature Precipitation Wind Pressure Humidity
    00:00 +1°C° 0 mm 6 mps 732 mmHg 84%
    01:00 +1°C° 0 mm 6 mps 732 mmHg 84%
    02:00 +1°C° 0 mm 6 mps 732 mmHg 84%
    03:00 -1°C° 0 mm 6 mps 732 mmHg 84%
    04:00 -1°C° 0 mm 6 mps 732 mmHg 85%
    05:00 -1°C° 0 mm 6 mps 733 mmHg 83%
    06:00 -2°C° 0 mm 6 mps 733 mmHg 82%
    07:00 -2°C° 0 mm 6 mps 734 mmHg 81%
    08:00 -3°C° 0 mm 6 mps 734 mmHg 78%
    09:00 -3°C° 0 mm 7 mps 735 mmHg 76%
    10:00 -4°C° 0 mm 8 mps 736 mmHg 74%
    11:00 -4°C° 0 mm 8 mps 736 mmHg 73%
    12:00 -3°C° 0 mm 7 mps 737 mmHg 71%
    13:00 -3°C° 0 mm 7 mps 738 mmHg 70%
    14:00 -3°C° 0 mm 7 mps 738 mmHg 72%
    15:00 -3°C° 0 mm 6 mps 739 mmHg 74%
    16:00 -2°C° 0 mm 5 mps 740 mmHg 76%
    17:00 -3°C° 0 mm 4 mps 741 mmHg 77%
    18:00 -3°C° 0 mm 4 mps 741 mmHg 79%
    19:00 -2°C° 0 mm 3 mps 742 mmHg 80%
    20:00 -4°C° 0 mm 3 mps 743 mmHg 80%
    21:00 -4°C° 0 mm 3 mps 743 mmHg 80%
    22:00 -4°C° 0 mm 3 mps 743 mmHg 81%
    23:00 -4°C° 0 mm 3 mps 744 mmHg 81%

    Day after tomorrow, 19 January, Saturday

    Time Temperature Precipitation Wind Pressure Humidity
    00:00 -4°C° 0 mm 3 mps 744 mmHg 81%
    01:00 -4°C° 0 mm 3 mps 744 mmHg 81%
    02:00 -3°C° 0 mm 2 mps 744 mmHg 82%
    03:00 -3°C° 0 mm 2 mps 744 mmHg 82%
    04:00 -3°C° 0 mm 2 mps 744 mmHg 83%
    05:00 -3°C° 0 mm 2 mps 744 mmHg 83%
    06:00 -3°C° 0 mm 2 mps 745 mmHg 83%
    07:00 -3°C° 0 mm 2 mps 745 mmHg 83%
    08:00 -3°C° 0 mm 2 mps 745 mmHg 80%
    09:00 -3°C° 0 mm 2 mps 745 mmHg 77%
    10:00 -2°C° 0 mm 2 mps 745 mmHg 74%
    11:00 -2°C° 0 mm 2 mps 745 mmHg 71%
    12:00 -1°C° 0 mm 2 mps 745 mmHg 67%
    13:00 -1°C° 0 mm 2 mps 744 mmHg 64%
    14:00 +1°C° 0 mm 1 mps 744 mmHg 66%
    15:00 0°C° 0 mm 1 mps 744 mmHg 69%
    16:00 0°C° 0 mm 1 mps 744 mmHg 71%
    17:00 0°C° 0 mm 1 mps 744 mmHg 71%
    18:00 -3°C° 0 mm 2 mps 744 mmHg 72%
    19:00 -3°C° 0 mm 2 mps 744 mmHg 73%
    20:00 -3°C° 0 mm 2 mps 744 mmHg 72%
    21:00 -3°C° 0 mm 2 mps 744 mmHg 72%
    22:00 -3°C° 0 mm 2 mps 744 mmHg 72%
    23:00 -3°C° 0 mm 2 mps 743 mmHg 73%

    20 January, Sunday

    Time Temperature Precipitation Wind Pressure Humidity
    00:00 -4°C° 0 mm 2 mps 743 mmHg 74%
    01:00 -4°C° 0 mm 2 mps 743 mmHg 75%
    02:00 -4°C° 0 mm 2 mps 743 mmHg 76%
    03:00 -4°C° 0 mm 2 mps 742 mmHg 77%
    04:00 -4°C° 0 mm 2 mps 742 mmHg 78%
    05:00 -5°C° 0 mm 2 mps 742 mmHg 80%
    06:00 -3°C° 0 mm 1 mps 742 mmHg 81%
    07:00 -3°C° 0 mm 1 mps 742 mmHg 82%
    08:00 -3°C° 0 mm 1 mps 742 mmHg 81%
    09:00 -2°C° 0 mm 1 mps 742 mmHg 79%
    10:00 -2°C° 0 mm 1 mps 742 mmHg 77%
    11:00 -2°C° 0 mm 1 mps 742 mmHg 73%
    12:00 -1°C° 0 mm 1 mps 742 mmHg 69%
    13:00 -1°C° 0 mm 1 mps 741 mmHg 65%
    14:00 -1°C° 0 mm 1 mps 741 mmHg 66%
    15:00 -1°C° 0 mm 1 mps 741 mmHg 67%
    16:00 -1°C° 0 mm 1 mps 741 mmHg 68%
    17:00 -1°C° 0 mm 1 mps 742 mmHg 69%
    18:00 -2°C° 0 mm 1 mps 742 mmHg 70%
    19:00 -2°C° 0 mm 1 mps 742 mmHg 70%
    20:00 -2°C° 0 mm 1 mps 743 mmHg 70%
    21:00 -2°C° 0 mm 1 mps 743 mmHg 70%
    22:00 -2°C° 0 mm 1 mps 743 mmHg 69%
    23:00 -2°C° 0 mm 1 mps 743 mmHg 69%

    21 January, Monday

    Time Temperature Precipitation Wind Pressure Humidity
    00:00 -2°C° 0 mm 1 mps 744 mmHg 68%
    01:00 -3°C° 0 mm 1 mps 744 mmHg 67%
    02:00 -3°C° 0 mm 1 mps 744 mmHg 67%
    03:00 -3°C° 0 mm 1 mps 744 mmHg 67%
    04:00 -3°C° 0 mm 1 mps 744 mmHg 67%
    05:00 -3°C° 0 mm 1 mps 744 mmHg 67%
    06:00 -4°C° 0 mm 0 mps 744 mmHg 68%
    07:00 -4°C° 0 mm 0 mps 744 mmHg 68%
    08:00 -4°C° 0 mm 0 mps 745 mmHg 66%
    09:00 -3°C° 0 mm 0 mps 745 mmHg 64%
    10:00 -3°C° 0 mm 0 mps 745 mmHg 62%
    11:00 -2°C° 0 mm 0 mps 745 mmHg 61%
    12:00 -2°C° 0 mm 0 mps 744 mmHg 60%
    13:00 -1°C° 0 mm 0 mps 744 mmHg 59%
    14:00 -1°C° 0 mm 0 mps 744 mmHg 61%
    15:00 -1°C° 0 mm 1 mps 744 mmHg 64%
    16:00 -1°C° 0 mm 1 mps 744 mmHg 67%
    17:00 -1°C° 0 mm 1 mps 744 mmHg 69%
    18:00 -3°C° 0 mm 2 mps 744 mmHg 70%
    19:00 -3°C° 0 mm 2 mps 744 mmHg 72%
    20:00 -5°C° 0 mm 3 mps 744 mmHg 73%
    21:00 -5°C° 0 mm 3 mps 744 mmHg 73%
    22:00 -5°C° 0 mm 3 mps 744 mmHg 73%
    23:00 -5°C° 0 mm 3 mps 743 mmHg 75%

    22 January, Tuesday

    Time Temperature Precipitation Wind Pressure Humidity
    00:00 -5°C° 0 mm 3 mps 743 mmHg 76%
    01:00 -6°C° 0 mm 3 mps 743 mmHg 78%
    02:00 -6°C° 0 mm 3 mps 742 mmHg 80%
    03:00 -6°C° 0 mm 3 mps 742 mmHg 81%
    04:00 -6°C° 0 mm 3 mps 741 mmHg 83%
    05:00 -6°C° 0 mm 3 mps 741 mmHg 83%
    06:00 -7°C° 0 mm 3 mps 741 mmHg 84%
    07:00 -7°C° 0 mm 3 mps 741 mmHg 84%
    08:00 -7°C° 0 mm 3 mps 741 mmHg 82%
    09:00 -6°C° 0 mm 3 mps 740 mmHg 79%
    10:00 -6°C° 0 mm 3 mps 740 mmHg 77%
    11:00 -6°C° 0 mm 3 mps 740 mmHg 75%
    12:00 -5°C° 0 mm 4 mps 739 mmHg 74%
    13:00 -4°C° 0 mm 4 mps 738 mmHg 72%
    14:00 -5°C° 0 mm 4 mps 738 mmHg 73%
    15:00 -5°C° 0 mm 4 mps 738 mmHg 74%
    16:00 -5°C° 0 mm 4 mps 737 mmHg 76%
    17:00 -5°C° 0 mm 4 mps 737 mmHg 77%
    18:00 -7°C° 0 mm 4 mps 737 mmHg 77%
    19:00 -7°C° 0 mm 4 mps 737 mmHg 78%
    20:00 -7°C° 0 mm 4 mps 736 mmHg 78%
    21:00 -7°C° 0 mm 4 mps 736 mmHg 77%
    22:00 -7°C° 0 mm 4 mps 736 mmHg 76%
    23:00 -7°C° 0 mm 4 mps 736 mmHg 76%
    Show more